Home   Weather   Schweinfurt   Past weeks

Flag for Germany Past Weather in Schweinfurt, Bavaria, Germany — Yesterday and Last 2 Weeks

Now
74 °F

Sunny.


Feels Like: 77 °F
Forecast: 48 / 72 °F
Wind: 3 mph from North

Location: Illesheim

Current Time: Sep 25, 2016 at 5:57:32 PM

Latest Report: Sep 25, 2016 at 4:58 PM


Visibility: N/A

Pressure: 30.10 "Hg

Humidity: 38%

Dew Point: 47 °F

Location of SchweinfurtLocation

Past Weather in Schweinfurt — Graph

°F

Schweinfurt Temperature Yesterday

Maximum temperature yesterday: 72 °F (at 3:58 PM)
Minimum temperature yesterday: 42 °F (at 5:58 AM)
Average temperature yesterday: 56 °F

High & Low Weather Summary for the Past Weeks

 TemperatureHumidityPressure
High89 °F (Sep 12, 4:58 PM)100% (Sep 18, 12:03 AM)30.37 "Hg (Sep 18, 12:03 AM)
Low39 °F (Sep 22, 5:58 AM)30% (Sep 12, 4:58 PM)29.80 "Hg (Sep 15, 3:58 PM)
Average61 °F74%30.05 "Hg
* Reported Sep 10 3:58 PM — Sep 25 3:58 PM, Schweinfurt, Weather by CustomWeather, © 2016

Note: Actual official high and low records may vary slightly from our data, if they occured in-between our weather recording intervals... More about our weather records

Advertising

Schweinfurt Weather History for the Previous 24 Hours

Scroll right to see more
 ConditionsComfort  
Time TempWeatherWind HumidityBarometerVisibility
3:58 PM
Sun, Sep 25
73 °FSunny.No wind40%30.11 "HgN/A
2:58 PM73 °FSunny.3 mph43%30.11 "HgN/A
1:58 PM71 °FSunny.5 mph45%30.13 "HgN/A
12:58 PM69 °FSunny.2 mph51%30.14 "HgN/A
11:58 AM68 °FSunny.3 mph60%30.16 "HgN/A
10:58 AM62 °FSunny.2 mph71%30.18 "HgN/A
9:58 AM55 °FSunny.2 mph82%30.19 "HgN/A
8:58 AM48 °FSunny.1 mph100%30.20 "HgN/A
7:58 AM41 °FFog.No wind100%30.20 "Hg5 mi
6:58 AM41 °FFog.2 mph100%30.20 "Hg4 mi
5:58 AM42 °FClear.3 mph100%30.19 "HgN/A
4:58 AM43 °FClear.2 mph100%30.20 "HgN/A
3:58 AM43 °FClear.No wind100%30.20 "HgN/A
2:58 AM46 °FClear.No wind93%30.20 "HgN/A
1:58 AM46 °FClear.1 mph95%30.22 "HgN/A
12:58 AM48 °FClear.No wind87%30.22 "HgN/A
11:58 PM
Sat, Sep 24
48 °FClear.No wind88%30.23 "HgN/A
10:58 PM53 °FClear.2 mph81%30.23 "HgN/A
9:58 PM53 °FClear.1 mph80%30.25 "HgN/A
8:58 PM57 °FClear.2 mph72%30.25 "HgN/A
7:58 PM59 °FClear.2 mph68%30.25 "HgN/A
6:58 PM66 °FSunny.3 mph52%30.25 "HgN/A
5:58 PM70 °FSunny.5 mph43%30.25 "HgN/A
Weather by CustomWeather, © 2016

See weather overviewHow to use our weather pages